Theta_e
322 313 312 306 299 295 291 294 296 296 298 302 301 300 300 305 298 295 319 336 341 341 344 345 348 351 351 351 350 350 350 347 343 341 340 339 337 336 335 335 335 334 335 339 340 343 343 340 338
315 311 307 299 294 290 291 294 295 297 304 305 304 306 306 307 314 318 328 335 342 343 345 346 346 350 351 350 350 349 349 346 343 342 341 339 338 336 333 332 331 331 333 336 339 340 338 337 335
312 306 305 295 289 289 290 294 296 300 302 300 303 307 307 309 315 318 325 339 344 344 345 346 346 349 350 350 350 349 349 347 343 342 342 341 340 339 336 331 329 329 331 334 336 337 335 332 330
308 305 298 294 292 294 295 295 297 300 301 301 304 303 309 314 316 321 330 342 343 344 345 344 347 350 349 349 350 349 349 346 343 343 342 341 340 338 336 332 328 327 329 330 331 332 330 327 325
302 299 293 291 293 294 294 296 299 299 297 301 301 301 307 313 320 324 329 341 341 343 344 345 345 346 349 349 349 349 349 347 344 343 342 340 339 338 336 334 331 327 326 327 327 327 325 323 321
300 297 291 290 291 294 296 296 299 297 298 299 301 304 307 310 320 324 331 339 341 342 343 344 339 341 344 347 348 348 347 346 346 343 342 340 339 337 336 334 333 330 328 326 325 324 323 320 319
298 294 291 290 290 293 295 295 295 296 297 299 304 302 304 308 320 321 328 330 332 340 341 343 343 341 337 340 342 344 345 345 344 343 343 341 340 339 338 336 333 331 329 326 324 322 321 319 318
295 294 290 289 290 292 295 295 296 297 297 300 302 299 301 310 316 315 319 321 324 329 338 340 341 342 343 344 335 337 340 341 341 340 338 335 335 335 334 332 333 331 328 326 324 321 320 318 317
296 291 288 290 290 294 294 295 295 298 297 298 299 300 302 311 311 314 315 315 317 318 322 333 338 340 341 341 336 333 334 336 335 335 331 331 336 335 333 330 332 331 327 324 321 320 318 316 315
292 289 291 293 292 293 294 295 295 296 296 297 298 299 303 309 310 315 317 318 317 316 316 319 322 328 336 339 337 339 340 341 340 340 337 337 335 335 332 326 327 327 326 324 321 317 313 309 308
292 288 291 294 295 296 295 294 296 295 294 297 298 299 302 307 309 316 318 321 319 316 315 315 317 318 323 330 338 337 337 337 338 337 336 333 333 333 330 326 322 321 317 317 315 314 312 310 308
291 292 293 297 297 295 294 295 294 294 297 298 298 299 302 305 309 313 316 315 312 311 313 313 314 316 317 319 327 337 335 337 336 335 334 331 330 330 329 328 323 321 319 316 315 313 311 308 306
291 292 294 296 295 294 295 294 295 294 296 298 297 298 301 305 307 305 309 310 308 308 309 311 312 314 315 317 326 331 335 333 335 336 333 331 329 329 329 326 323 320 318 317 314 313 310 306 303
294 294 294 295 295 295 295 294 295 296 296 296 296 297 299 302 304 302 301 303 302 305 307 309 310 313 316 315 326 328 330 329 329 330 331 329 329 328 324 322 319 318 317 315 312 310 305 301 299
293 291 293 292 294 294 295 292 294 296 295 296 296 295 296 298 300 303 304 301 301 303 305 306 309 312 315 318 324 324 325 325 323 323 327 328 327 325 321 318 316 314 312 308 307 304 301 298 295
290 290 287 291 293 294 294 288 294 294 295 296 295 294 294 296 298 299 300 300 301 302 304 306 309 312 314 316 319 318 320 321 318 319 321 324 323 322 319 315 313 310 307 306 304 301 299 296 292
287 284 285 289 293 292 291 289 293 293 292 293 294 294 294 294 295 297 298 299 300 302 304 304 308 310 312 312 312 312 314 315 314 315 315 317 318 317 316 313 308 305 302 303 301 301 298 292 289
284 284 285 286 290 290 289 289 292 293 292 293 293 293 293 294 296 298 297 297 299 301 303 304 306 308 308 306 306 304 305 304 307 308 309 309 310 311 310 306 303 300 299 299 301 299 296 291 289
286 285 285 287 290 290 289 289 291 294 291 291 293 293 294 294 299 297 297 297 297 300 301 303 305 305 305 305 304 304 304 302 301 302 303 304 305 305 305 300 297 297 300 301 299 297 292 289 288
286 285 286 288 289 289 289 289 293 292 295 295 296 296 295 297 295 294 295 295 296 299 301 302 304 304 305 308 303 302 300 297 298 297 298 299 301 301 299 295 293 296 297 298 297 294 290 289 289
286 285 285 287 288 287 286 285 288 291 292 294 294 296 296 297 298 296 293 294 296 298 300 302 303 303 305 305 295 294 294 294 293 294 293 293 296 296 295 292 292 295 298 297 296 293 291 288 286
284 288 288 286 286 282 286 280 286 289 290 292 294 294 295 297 296 295 293 293 294 297 300 302 302 302 303 298 298 298 298 295 295 296 293 291 293 292 291 289 291 293 296 294 293 292 290 289 286
287 289 287 286 285 283 283 282 285 287 289 291 295 296 296 296 295 295 293 295 295 297 299 301 301 302 302 299 301 300 298 295 294 292 290 289 289 289 288 287 289 290 291 292 290 287 287 288 286
290 288 287 285 284 279 283 283 284 285 289 291 294 295 296 294 294 293 293 293 293 296 299 300 300 300 298 299 299 300 299 291 291 289 288 287 287 286 286 285 287 286 287 287 287 287 287 286 285
288 286 279 277 276 279 282 282 288 289 291 292 294 296 294 294 294 293 291 291 292 295 297 299 299 298 296 298 298 299 295 293 293 290 289 286 285 284 284 284 285 285 285 285 285 285 284 284 284
286 286 280 274 273 277 281 279 285 290 292 292 292 292 292 293 293 293 292 291 292 294 296 298 298 298 295 295 296 295 294 294 293 292 290 288 287 285 284 284 284 283 283 283 284 284 283 283 283
286 284 288 282 270 275 280 282 287 290 291 291 293 292 291 292 293 293 291 290 291 294 295 297 298 298 295 295 294 293 292 292 292 290 288 287 286 284 283 284 283 283 282 283 283 283 282 283 282
288 290 283 281 273 271 278 279 283 287 291 291 291 292 293 293 293 291 290 289 291 293 295 297 298 297 295 295 294 292 292 291 290 288 286 285 284 283 282 282 282 282 282 282 282 281 281 282 281
286 284 284 284 281 275 273 280 286 289 290 291 292 293 293 293 293 292 289 289 291 292 293 296 296 295 293 293 292 290 289 289 288 287 285 284 283 282 281 282 281 281 281 281 281 281 281 281 280
284 285 286 280 277 278 278 284 288 290 292 291 292 292 292 292 292 290 289 288 289 291 292 294 294 292 292 292 291 290 289 287 286 285 284 283 282 282 281 281 281 281 281 281 281 280 280 280 279
Wind_Speed
5 5 2 5 5 5 1 3 1 3 2 1 3 5 4 2 2 2 0 5 9 11 10 11 11 13 11 11 12 12 14 15 14 16 16 16 17 17 16 16 17 17 17 17 18 19 21 20 19
2 1 5 3 6 3 3 3 4 3 3 7 4 3 2 1 1 4 5 6 9 10 9 10 10 12 11 11 11 13 14 15 15 15 16 16 16 17 17 17 17 18 18 18 18 19 20 20 20
2 4 5 5 3 4 4 5 5 2 6 2 4 3 4 5 1 3 1 10 10 9 9 9 11 12 12 12 12 13 15 15 15 16 16 16 16 16 17 18 18 18 19 19 19 19 20 20 21
2 5 5 5 3 3 3 4 5 6 3 1 3 5 1 2 2 1 2 11 12 10 9 10 11 13 12 11 11 13 15 16 15 16 16 16 16 17 16 17 18 19 19 19 19 20 20 21 21
4 3 4 3 2 3 4 3 7 5 3 3 3 5 3 2 3 3 5 10 13 10 10 10 10 11 12 11 11 11 14 15 15 15 16 15 16 17 16 17 18 19 19 19 20 20 21 21 21
5 3 4 2 3 3 2 5 6 3 3 3 3 7 4 0 2 2 4 7 9 12 10 9 9 10 11 11 10 9 11 12 15 15 15 15 15 16 17 18 18 19 19 19 20 20 21 21 21
7 4 4 3 3 1 5 7 5 6 4 4 6 5 1 2 3 2 5 5 4 7 10 8 8 8 8 8 9 9 10 11 13 14 14 13 14 14 14 16 18 19 19 19 20 19 21 21 21
6 6 4 3 5 4 5 6 1 5 4 2 3 4 4 4 6 5 5 5 5 3 8 10 8 8 8 8 8 8 9 10 12 12 12 12 12 12 13 12 16 19 19 19 19 20 20 21 20
3 6 2 5 7 4 4 5 1 1 5 2 4 3 1 5 8 6 4 4 4 4 4 5 8 8 8 9 8 9 9 10 11 11 11 11 8 10 12 12 15 19 18 18 19 19 20 21 20
6 4 9 5 5 3 5 4 8 4 3 4 3 3 2 5 7 10 8 9 6 6 5 4 4 3 3 4 6 6 8 7 8 9 10 7 9 8 9 10 17 17 17 18 19 19 18 14 9
2 5 4 3 3 2 5 2 5 7 4 8 9 5 6 7 8 10 9 8 10 6 5 5 4 3 3 3 3 3 3 4 5 8 9 8 7 7 6 6 6 8 12 7 10 10 8 11 9
3 1 4 3 3 4 5 5 4 6 6 1 7 5 8 11 14 14 12 9 8 7 7 6 4 4 3 2 2 2 4 6 5 5 9 8 4 5 6 5 5 4 6 10 8 7 10 12 13
2 3 2 1 2 3 5 4 7 8 8 1 3 6 11 11 11 5 6 5 6 7 7 7 5 4 4 4 3 3 3 3 4 7 8 7 7 7 6 6 5 4 6 8 7 7 8 9 12
2 2 1 1 2 2 4 2 1 4 4 4 5 8 8 11 13 4 7 10 9 6 8 6 6 5 4 5 6 5 3 3 3 3 6 9 7 7 7 6 5 4 5 7 7 7 8 8 10
2 1 5 2 1 1 2 5 11 3 3 6 8 7 8 11 7 15 11 11 9 6 6 8 6 5 6 6 5 5 4 4 4 3 5 8 8 9 9 7 5 5 6 10 9 9 9 11 10
4 5 1 3 2 2 3 9 7 1 6 10 9 8 8 11 14 10 9 9 8 6 8 6 6 6 6 6 5 4 5 5 3 4 4 8 10 11 9 8 7 7 6 8 8 8 10 10 9
6 3 2 8 4 0 3 7 5 1 4 9 8 9 9 10 10 12 12 11 10 10 9 9 8 8 7 6 5 4 5 4 4 3 3 4 7 9 9 8 7 8 8 8 8 9 10 10 10
6 4 3 5 2 1 3 13 12 7 4 10 9 9 10 12 20 14 13 11 9 9 8 8 8 8 8 5 5 3 3 3 3 3 3 6 6 9 9 7 9 7 9 8 9 12 9 10 10
5 3 3 4 3 3 8 12 12 12 6 11 13 13 13 16 18 10 12 12 10 9 10 11 11 10 9 5 4 4 4 3 2 2 4 5 7 8 9 7 8 7 10 11 12 12 15 9 11
3 3 5 5 3 4 6 16 14 8 13 15 17 17 17 14 9 9 11 12 14 14 13 13 13 13 11 7 4 3 4 2 2 2 4 4 6 7 9 10 8 10 10 12 13 14 9 6 6
4 6 6 7 3 3 6 9 8 7 10 10 13 17 12 19 19 11 12 15 12 15 17 16 15 14 11 9 7 5 5 4 3 3 3 3 5 6 8 9 9 10 10 11 13 12 9 8 3
6 9 5 3 3 5 1 8 9 8 10 8 14 12 19 20 13 7 11 13 16 19 14 15 14 15 12 13 11 10 6 6 4 6 4 5 4 5 7 8 9 10 8 11 11 9 6 6 7
7 6 7 3 3 3 2 4 10 2 9 12 17 16 16 12 9 11 10 14 15 12 14 13 14 13 13 14 13 10 8 4 5 6 9 6 4 4 6 8 9 9 7 9 10 9 8 4 6
10 7 7 5 2 5 9 8 7 7 9 7 7 11 9 7 8 9 7 7 7 10 13 14 16 15 13 15 14 15 13 10 9 8 7 5 4 3 4 6 6 7 7 9 8 7 8 6 5
2 6 1 3 1 11 4 5 17 6 9 9 11 15 5 5 6 7 8 7 6 11 12 14 16 16 16 16 15 14 13 13 14 14 10 10 7 4 6 7 8 7 7 7 8 8 7 8 7
10 9 8 9 6 5 3 11 11 10 8 11 11 10 2 3 5 6 7 7 9 11 13 14 17 15 15 15 14 12 12 9 8 12 10 9 10 9 10 9 9 9 9 8 8 7 6 8 7
7 9 5 2 2 3 7 11 12 13 15 8 14 9 6 9 8 10 7 6 7 9 12 14 16 14 15 15 12 11 11 11 11 11 10 8 8 9 11 11 11 10 9 9 9 7 8 7 7
7 6 3 1 4 5 7 7 12 5 9 11 12 11 8 8 8 7 6 7 6 7 9 11 13 15 15 14 13 11 12 11 10 10 12 11 8 10 12 12 11 10 9 9 9 8 8 9 6
4 5 2 4 5 7 3 10 9 12 9 9 9 6 5 7 7 7 6 5 6 5 8 11 12 12 13 14 13 13 11 11 11 11 11 11 11 12 12 12 12 12 11 9 9 9 10 10 9
2 6 12 6 6 3 3 17 3 7 7 6 8 4 4 4 5 4 5 5 6 8 9 11 11 12 14 13 12 13 12 13 12 11 12 12 13 12 13 12 12 12 11 10 11 11 9 10 10
Wind_Direction
342 333 73 44 57 63 126 233 328 155 178 148 108 147 176 73 149 173 311 147 149 147 154 153 152 144 138 125 126 123 117 107 100 93 86 85 86 86 79 76 74 75 77 77 79 80 81 79 76
350 250 50 76 85 71 259 249 217 207 134 129 101 86 88 109 227 126 134 180 155 143 146 150 142 135 132 128 126 128 121 113 107 101 97 90 84 82 81 78 78 78 79 80 80 80 80 77 72
109 25 79 87 104 172 206 200 176 102 145 186 107 43 142 155 161 155 243 162 151 148 147 149 143 138 141 135 126 132 128 119 115 106 97 91 86 83 80 80 77 78 78 79 79 80 78 73 70
52 18 48 81 180 230 212 174 160 138 248 162 122 95 334 269 175 173 99 154 150 152 153 153 149 146 142 132 128 137 129 124 116 110 105 97 92 84 81 80 80 79 81 80 80 79 78 76 74
33 53 63 79 263 267 253 172 149 154 142 152 183 174 165 257 274 266 191 162 155 161 160 160 156 149 141 140 138 138 137 131 123 116 110 105 97 89 86 85 82 82 82 82 81 81 80 77 75
47 93 68 206 247 277 238 167 142 158 146 159 102 144 194 283 205 220 185 163 164 161 166 164 163 155 153 149 144 140 133 134 128 126 122 116 109 98 94 91 88 87 85 85 85 85 83 81 79
111 84 172 174 204 243 203 153 166 168 161 232 145 137 236 246 172 142 125 122 120 170 165 169 168 161 155 151 152 149 141 140 139 135 132 124 115 103 93 95 92 89 87 87 88 88 87 84 81
102 89 117 204 196 235 187 180 144 160 212 91 182 188 198 195 148 125 108 111 110 122 157 162 165 165 163 164 162 158 151 147 146 145 138 133 120 108 92 88 95 94 90 89 90 90 89 87 82
126 69 188 209 157 225 150 172 27 118 119 227 202 176 145 129 129 126 128 111 117 106 113 145 167 179 177 169 170 166 159 157 153 150 144 135 134 124 114 106 102 99 97 96 95 93 92 89 84
83 118 213 191 196 202 183 182 165 158 143 240 267 215 110 150 163 166 176 171 173 169 158 152 141 153 170 158 168 175 165 167 164 160 151 144 143 134 121 108 105 100 97 95 93 91 88 86 84
148 181 192 198 213 189 169 216 173 136 233 221 206 184 170 178 187 187 193 183 183 172 166 168 159 191 204 176 175 173 162 164 172 165 155 145 142 137 129 123 111 114 104 98 94 90 83 85 87
105 236 185 157 142 140 165 129 198 198 216 210 221 161 164 187 196 197 196 187 172 174 175 172 173 192 216 227 217 205 174 174 169 167 161 149 142 140 141 131 124 115 118 108 98 94 94 88 84
116 213 208 101 127 163 135 202 219 233 234 117 123 175 187 196 205 206 198 196 182 190 184 184 178 195 211 212 205 214 209 186 173 166 162 153 147 152 140 131 118 117 120 115 110 103 97 90 89
163 174 287 350 182 180 189 210 166 262 143 188 189 217 209 208 205 185 201 207 199 191 192 184 191 199 202 210 200 202 175 169 137 132 163 152 150 150 134 131 122 119 117 107 101 103 97 91 93
68 307 326 244 313 244 169 288 237 196 174 221 230 234 231 227 205 217 211 208 192 198 188 191 194 194 199 200 199 194 161 167 141 145 146 150 149 147 135 132 126 121 115 107 103 96 102 100 95
59 48 25 300 146 330 133 261 272 201 187 239 241 239 234 235 227 226 213 207 196 181 190 188 190 189 187 183 173 164 159 165 147 148 148 158 153 148 143 141 138 129 121 114 114 119 110 106 103
7 221 216 315 200 118 163 267 270 84 205 265 252 248 243 254 250 236 219 207 200 193 183 189 190 189 177 163 151 138 155 148 140 140 138 140 141 142 142 137 138 140 121 117 127 121 123 119 108
206 198 244 248 229 162 248 258 273 266 216 256 260 256 245 243 243 228 213 206 197 190 186 183 182 179 166 143 126 110 127 120 116 133 133 141 136 136 134 131 139 145 123 125 130 126 123 119 117
139 165 208 245 240 198 234 261 261 269 244 255 254 249 245 240 249 211 206 197 187 191 187 187 180 178 163 159 154 169 169 147 121 130 131 132 138 134 139 138 141 142 141 145 140 130 131 121 132
152 155 254 279 219 182 277 268 265 236 251 235 243 246 242 245 237 218 201 189 195 191 191 187 190 180 181 172 149 151 151 125 124 135 127 151 141 144 145 146 157 146 136 143 149 149 141 136 187
200 178 224 223 344 251 333 281 264 272 251 257 248 244 246 237 243 227 193 203 193 195 192 190 188 183 183 165 123 108 91 87 125 160 136 137 141 148 148 146 145 149 150 159 161 162 158 152 178
229 205 172 169 64 251 84 286 283 255 251 248 258 235 242 241 240 225 198 201 202 208 191 188 184 180 177 164 165 176 169 160 181 170 153 142 137 146 147 143 148 154 156 162 167 167 161 143 153
223 127 154 130 164 351 193 271 258 30 278 249 248 249 247 245 226 236 212 212 212 191 188 184 177 181 176 179 181 181 178 153 150 141 142 136 121 145 148 147 151 153 159 159 164 171 167 154 154
149 79 55 52 85 279 181 179 214 187 217 262 248 247 242 240 227 233 232 199 195 179 180 181 179 184 175 181 184 187 178 151 149 150 150 151 148 146 152 143 150 145 151 160 164 161 158 148 142
127 111 312 332 16 236 345 195 257 280 242 229 250 267 238 232 227 224 205 204 183 184 182 183 184 187 183 185 185 183 171 168 170 165 165 158 158 169 174 159 157 157 154 148 147 147 142 147 141
197 166 170 202 194 250 54 237 253 238 280 252 264 275 287 177 240 250 251 194 189 188 185 186 192 189 185 185 186 178 167 176 174 175 168 175 174 171 163 160 155 149 144 142 137 132 128 125 121
194 210 190 110 90 31 225 277 281 257 266 264 257 256 245 237 242 239 228 221 186 188 191 190 194 190 184 186 178 178 173 173 174 171 166 171 165 160 160 158 153 147 143 143 137 130 127 125 124
174 170 88 346 188 237 266 266 239 286 250 252 260 258 259 221 233 235 224 207 195 188 185 189 194 193 183 179 176 178 177 173 168 166 171 166 152 155 158 153 151 148 145 140 132 129 130 127 122
150 207 189 144 166 187 254 259 215 227 250 271 270 274 262 245 227 224 216 209 190 179 180 188 186 182 181 178 172 167 173 173 167 174 171 167 156 158 161 160 153 152 151 148 140 141 142 136 138
264 219 181 161 222 248 181 266 183 233 250 246 265 258 287 261 261 243 224 199 189 195 187 192 189 185 181 178 176 177 172 172 171 173 170 164 166 167 160 158 157 155 156 156 153 149 153 150 153